Погода в Пшизове

Россия / Республика Адыгея     45°05′35″N   40°06′19″E
темп.,
°C
ветер,
м/с
пор.,
м/с
влажн.,
%
обл.,
%
осадки,
мм/ч
давл.,
гПа
погр.,
м
14 мая, пт
пт1400:00+15в410862 0.0 1010158
03:00+14юв12820 0.0 101012
06:00+15вюв33670 0.0 101023
09:00+22в34586 0.0 1010210
12:00+27в34525 0.0 1010595
15:00+30всв34500 0.0 1010853
18:00+27с227011 0.0 101027
21:00+21сз2284100 0.0 101011
15 мая, сб
сб1500:00+18зюз46903 0.0 101185
03:00+15зюз36950 0.0 101293
06:00+14юз34840 0.0 101479
09:00+20зюз226648 0.0 1014310
12:00+24сз22635 0.0 1014575
15:00+26с236114 0.0 1012956
18:00+25ссв23742 0.0 1012147
21:00+20св34860 0.2 101153
16 мая, вс
вс1600:00+19св33940 0.0 101048
03:00+18ююв119610 0.6 101014
06:00+18юз119673 0.3 101052
09:00+22ссв128487 0.3 1009438
12:00+26всв4570100 0.0 1007995
15:00+28всв5666100 0.0 10061360
18:00+26всв47780 0.0 1004319
21:00+21всв410900 0.0 1004178
17 мая, пн
пн1700:00+19в35855 0.0 100383
03:00+17св228999 0.0 100321
06:00+18з228951 0.0 100446
09:00+22зсз5775100 0.0 1005513
12:00+25зсз555949 0.0 1006897
15:00+24сз4669100 0.6 1007504
18:00+17зсз119099 5.3 100937
21:00+16юз3592100 5.3 101185
18 мая, вт
вт1800:00+16юз1192100 0.0 101114
03:00+14зсз5793100 2.6 1012174
06:00+14зюз3994100 0.1 1013318
09:00+19юз477998 0.1 1014719
12:00+21зюз6768100 0.0 10141227
15:00+22з576412 0.1 10131466
18:00+20з610730 0.0 1014403
21:00+14зюз34840 0.0 101569